{"data":{"norad_id":55956,"intl_designator":"2023-037AU","name":"STARLINK-5883","alt_names":[],"object_type":"PAYLOAD","status":"ACTIVE","operator":null,"country":"US","launch_date":"2023-03-17","launch_site_code":"AFWTR","launch_vehicle":null,"mission":null,"orbit_class":"UNKNOWN","rcs_meters":null,"size_class":null,"mass_kg":null,"dimensions":null,"purposes":["comms"],"wikipedia_slug":null,"has_3d_model":false,"image_url":null,"decayed_at":null,"tle_current":{"epoch":"2026-05-25T02:44:20.743008Z","epoch_age_seconds":68485,"freshness":"FRESH","line1":"1 55956U 23037AU  26145.11412897 -.00000030  00000+0  53140-5 0  9997","line2":"2 55956  70.0007  71.6530 0002890 269.7772  90.3056 14.98331930175925","mean_motion":14.9833193,"eccentricity":0.000289,"inclination_deg":70.0007,"raan_deg":71.653,"arg_perigee_deg":269.7772,"mean_anomaly_deg":90.3056,"bstar":5.314e-6,"rev_number":17592,"period_min":96.106875330355,"perigee_km":570.0413185644,"apogee_km":574.05852660566,"semimajor_km":6950.186922585,"source":"CELESTRAK","updated_at":"2026-05-25T13:38:17.919167Z"}}}